sat.trackr.live / text

‹ back to catalog

FEMTO-1

NORAD 68419 · 2026-067D

PAYLOAD ACTIVE UNKNOWN

§ Identity

Operator
Country
BUL
Launch date
2026-03-30
Launch site
AFWTR
Launch vehicle
Mass (kg)
RCS (m²)

External: N2YO · Heavens-Above · Gunter

§ Orbital elements

Epoch: 2026-09-19T16:38:17.676096Z

Period
94.77 min
Inclination
97.4647°
Eccentricity
0.0000900
Mean motion
15.19399893 rev/d
Perigee alt
507.0 km
Apogee alt
508.3 km
Semi-major
6,885.8 km
B*
1.0509e-4
RAAN
220.0433°
Arg perigee
20.8471°
Mean anomaly
339.2800°
Rev number
2,629

§ Raw data

FEMTO-11 68419U 26067D   26262.69326014  .00002156  00000+0  10509-3 0  99992 68419  97.4647 220.0433 0000900  20.8471 339.2800 15.19399893 26293

JSON: /api/v1/satellites/68419 · /tle

For live sub-satellite position, see the globe view (requires WebGL).

§ Visibility from observer

Set your observer location to see the next 7 days of passes ≥ 10°. The values pass through the URL so the page stays shareable.

No JS? Fill the form by hand. The geolocation button needs JavaScript.

§ Radio — SatNOGS DB

ModeDescriptionDownlinkUplink
GMSK UHF 9k6 Telemetry 401.355 MHz

1 transmitter · refreshed weekly from db.satnogs.org